contact:dominique.lefevre@mio.osupytheas.fr, maurice.libes@osupytheas.fr, didier.mallarino@osupytheas.fr
Project:EMSO http://www.emso-fr.org/EMSO-France
Depth: 2436.0 m
Title:EMSO Ligure Ouest : Data MII capteur AQUADOPP
Date,Latitude,Longitude,X_East,Y_North,Z_Up,Amplitude_X,Amplitude_Y,Amplitude_Z,Batterie,SoundSpeed,Heading,Pitch,Roll,Pressure,TIS,Speed,Direction
, degrees North, degrees East, m.s-1, m.s-1,m.s-1, 1, 1, 1, Volt, m.s-1, degree, degree, degree, dbar, degree_C, m.s-1, degree
2021-12-24T00:04:03,42.805,6.029,-0.028,0.007,-0.01,100.0,101.0,100.0,13.4,1505.2,326.5,-0.8,1.8,2470.651,13.28,0.028,284.0
2021-12-24T00:07:03,42.805,6.029,-0.042,0.011,-0.021,102.0,100.0,100.0,13.4,1505.2,329.1,-0.8,1.8,2470.657,13.28,0.043,284.7
2021-12-24T00:10:03,42.805,6.029,-0.002,0.014,-0.029,100.0,101.0,100.0,13.4,1505.2,327.7,-0.7,1.8,2470.617,13.29,0.014,351.9
2021-12-24T00:13:03,42.805,6.029,-0.021,0.021,0.01,101.0,102.0,99.0,13.3,1505.2,329.5,-0.8,1.8,2470.652,13.29,0.029,315.0
2021-12-24T00:16:03,42.805,6.029,-0.015,0.014,-0.029,101.0,101.0,101.0,13.4,1505.2,329.0,-0.7,1.9,2470.597,13.29,0.02,313.0
2021-12-24T00:19:03,42.805,6.029,-0.027,0.011,-0.003,101.0,101.0,100.0,13.4,1505.2,328.1,-0.7,1.8,2470.646,13.29,0.029,292.2
2021-12-24T00:22:03,42.805,6.029,-0.022,0.032,0.012,100.0,100.0,99.0,13.4,1505.2,326.7,-0.8,1.8,2470.603,13.29,0.038,325.5
2021-12-24T00:25:03,42.805,6.029,-0.043,0.014,-0.024,100.0,102.0,100.0,13.4,1505.2,324.4,-0.8,1.8,2470.637,13.29,0.045,288.0
2021-12-24T00:28:03,42.805,6.029,-0.009,0.0,-0.013,100.0,103.0,99.0,13.4,1505.2,329.6,-0.8,1.8,2470.619,13.29,0.009,270.0
2021-12-24T00:31:03,42.805,6.029,0.014,0.004,-0.017,101.0,100.0,100.0,13.4,1505.2,326.5,-0.8,1.8,2470.586,13.29,0.014,74.1
2021-12-24T00:34:03,42.805,6.029,-0.031,0.022,0.011,100.0,102.0,100.0,13.3,1505.2,327.0,-0.8,1.8,2470.592,13.29,0.038,305.4
2021-12-24T00:37:03,42.805,6.029,-0.033,0.027,-0.003,100.0,101.0,100.0,13.4,1505.2,327.7,-0.8,1.8,2470.607,13.29,0.042,309.3
2021-12-24T00:40:03,42.805,6.029,-0.019,0.017,-0.02,100.0,103.0,100.0,13.3,1505.2,328.4,-0.8,1.9,2470.619,13.29,0.025,311.8
2021-12-24T00:43:03,42.805,6.029,-0.028,0.033,-0.017,100.0,100.0,100.0,13.4,1505.2,329.4,-0.8,1.8,2470.579,13.29,0.043,319.7
2021-12-24T00:46:03,42.805,6.029,-0.04,0.015,-0.026,101.0,102.0,99.0,13.3,1505.2,326.5,-0.8,1.8,2470.616,13.29,0.042,290.6
2021-12-24T00:49:03,42.805,6.029,-0.012,0.026,0.003,102.0,101.0,98.0,13.3,1505.2,326.3,-0.7,1.8,2470.589,13.29,0.028,335.2
2021-12-24T00:52:03,42.805,6.029,-0.04,0.031,-0.006,98.0,99.0,101.0,13.4,1505.2,332.0,-0.8,1.8,2470.586,13.29,0.05,307.8
2021-12-24T00:55:03,42.805,6.029,-0.034,0.016,-0.032,99.0,103.0,99.0,13.3,1505.2,331.4,-0.8,1.8,2470.622,13.29,0.037,295.2
2021-12-24T00:58:03,42.805,6.029,-0.013,0.019,0.017,100.0,101.0,100.0,13.4,1505.2,331.3,-0.7,1.8,2470.621,13.29,0.023,325.6
2021-12-24T01:04:03,42.805,6.029,-0.062,0.054,0.024,102.0,103.0,101.0,13.3,1505.2,326.1,-0.8,1.8,2470.636,13.28,0.082,311.1
2021-12-24T01:07:03,42.805,6.029,-0.007,0.035,-0.002,101.0,101.0,100.0,13.4,1505.2,330.5,-0.7,1.8,2470.597,13.28,0.035,348.7
2021-12-24T01:10:03,42.805,6.029,-0.03,0.036,-0.022,100.0,100.0,99.0,13.4,1505.2,331.7,-0.7,1.8,2470.62,13.28,0.046,320.2
2021-12-24T01:13:03,42.805,6.029,-0.022,0.0,-0.01,101.0,101.0,99.0,13.3,1505.2,327.5,-0.8,1.8,2470.528,13.28,0.022,270.0
2021-12-24T01:16:03,42.805,6.029,-0.008,-0.012,-0.052,100.0,100.0,100.0,13.4,1505.2,323.9,-0.8,1.8,2470.615,13.29,0.014,213.7
2021-12-24T01:19:03,42.805,6.029,-0.014,-0.002,-0.034,99.0,101.0,100.0,13.3,1505.2,328.9,-0.7,1.8,2470.618,13.29,0.014,261.9
2021-12-24T01:22:03,42.805,6.029,-0.017,0.025,-0.006,102.0,100.0,100.0,13.4,1505.2,326.4,-0.8,1.8,2470.568,13.29,0.03,325.8
2021-12-24T01:25:03,42.805,6.029,-0.032,0.025,-0.04,99.0,101.0,100.0,13.4,1505.2,325.3,-0.7,1.8,2470.592,13.29,0.04,308.0
2021-12-24T01:28:03,42.805,6.029,-0.03,0.03,-0.035,101.0,100.0,100.0,13.4,1505.2,329.9,-0.8,1.8,2470.617,13.29,0.042,315.0
2021-12-24T01:31:03,42.805,6.029,-0.014,0.004,-0.026,99.0,103.0,100.0,13.3,1505.2,328.9,-0.7,1.8,2470.564,13.29,0.014,285.9
2021-12-24T01:34:03,42.805,6.029,0.002,0.02,-0.001,101.0,102.0,99.0,13.3,1505.2,325.8,-0.7,1.8,2470.599,13.29,0.02,5.7
2021-12-24T01:37:03,42.805,6.029,0.007,0.019,0.0,100.0,99.0,100.0,13.4,1505.2,326.3,-0.8,1.9,2470.561,13.29,0.02,20.2
2021-12-24T01:40:03,42.805,6.029,-0.03,0.007,0.0,102.0,99.0,99.0,13.4,1505.2,330.8,-0.7,1.8,2470.569,13.29,0.03,283.1
2021-12-24T01:43:03,42.805,6.029,-0.016,0.009,-0.026,100.0,100.0,100.0,13.4,1505.2,326.3,-0.8,1.8,2470.577,13.29,0.018,299.4
2021-12-24T01:46:03,42.805,6.029,-0.013,0.011,-0.017,100.0,100.0,100.0,13.3,1505.2,327.7,-0.8,1.8,2470.605,13.29,0.017,310.2
2021-12-24T01:49:03,42.805,6.029,-0.023,0.019,0.003,100.0,100.0,99.0,13.3,1505.2,329.0,-0.8,1.8,2470.572,13.29,0.029,309.6
2021-12-24T01:52:03,42.805,6.029,-0.019,0.013,-0.038,102.0,100.0,99.0,13.4,1505.2,326.9,-0.7,1.8,2470.594,13.29,0.023,304.4
2021-12-24T01:55:03,42.805,6.029,0.008,0.022,0.017,99.0,102.0,98.0,13.4,1505.2,330.4,-0.7,1.8,2470.586,13.29,0.023,20.0
2021-12-24T01:58:03,42.805,6.029,-0.007,0.022,-0.021,101.0,99.0,100.0,13.3,1505.2,325.1,-0.8,1.8,2470.596,13.29,0.023,342.4
2021-12-24T02:04:03,42.805,6.029,-0.012,0.025,0.03,101.0,99.0,99.0,13.4,1505.2,326.8,-0.8,1.8,2470.622,13.28,0.027,334.4
2021-12-24T02:07:03,42.805,6.029,-0.038,0.008,-0.028,99.0,100.0,100.0,13.4,1505.2,325.6,-0.8,1.8,2470.594,13.28,0.038,281.9
2021-12-24T02:10:03,42.805,6.029,-0.002,-0.001,-0.028,99.0,101.0,100.0,13.4,1505.2,328.1,-0.8,1.8,2470.565,13.29,0.002,243.4
2021-12-24T02:13:03,42.805,6.029,-0.037,0.036,0.019,100.0,100.0,99.0,13.4,1505.2,329.3,-0.7,1.8,2470.577,13.29,0.051,314.2
2021-12-24T02:16:03,42.805,6.029,-0.029,0.009,0.02,100.0,101.0,99.0,13.4,1505.2,330.1,-0.8,1.8,2470.536,13.29,0.03,287.2
2021-12-24T02:19:03,42.805,6.029,-0.031,0.035,0.004,101.0,100.0,99.0,13.4,1505.2,325.7,-0.7,1.8,2470.59,13.29,0.046,318.5
2021-12-24T02:22:03,42.805,6.029,-0.039,0.025,-0.002,99.0,102.0,101.0,13.4,1505.2,326.8,-0.7,1.8,2470.568,13.29,0.046,302.7
2021-12-24T02:25:03,42.805,6.029,-0.026,-0.005,-0.056,101.0,101.0,99.0,13.4,1505.2,330.7,-0.8,1.8,2470.568,13.29,0.026,259.1
2021-12-24T02:28:03,42.805,6.029,-0.001,0.025,0.006,101.0,101.0,99.0,13.4,1505.2,327.9,-0.7,1.8,2470.56,13.29,0.025,357.7
2021-12-24T02:31:03,42.805,6.029,-0.031,0.016,-0.029,101.0,99.0,99.0,13.4,1505.2,329.1,-0.8,1.8,2470.488,13.29,0.034,297.3
2021-12-24T02:34:03,42.805,6.029,-0.014,0.0,-0.011,100.0,101.0,100.0,13.3,1505.2,328.4,-0.8,1.8,2470.504,13.29,0.014,270.0
2021-12-24T02:37:03,42.805,6.029,-0.005,0.014,-0.017,99.0,102.0,99.0,13.4,1505.2,329.6,-0.8,1.8,2470.549,13.29,0.014,340.4
2021-12-24T02:40:03,42.805,6.029,-0.043,0.029,-0.006,100.0,100.0,100.0,13.3,1505.2,327.1,-0.8,1.8,2470.503,13.29,0.051,304.0
2021-12-24T02:43:03,42.805,6.029,-0.016,0.023,-0.025,99.0,101.0,100.0,13.4,1505.2,326.6,-0.8,1.8,2470.584,13.29,0.028,325.2
2021-12-24T02:46:03,42.805,6.029,0.007,0.01,-0.014,99.0,100.0,99.0,13.3,1505.2,327.4,-0.8,1.8,2470.547,13.29,0.012,35.0
2021-12-24T02:49:03,42.805,6.029,0.0,-0.023,-0.027,100.0,101.0,99.0,13.4,1505.2,329.7,-0.8,1.8,2470.538,13.29,0.023,180.0
2021-12-24T02:52:03,42.805,6.029,0.002,0.02,-0.012,101.0,101.0,100.0,13.4,1505.2,330.2,-0.8,1.8,2470.535,13.29,0.02,5.7
2021-12-24T02:55:03,42.805,6.029,-0.002,0.025,-0.005,101.0,100.0,100.0,13.4,1505.2,329.9,-0.7,1.8,2470.519,13.29,0.025,355.4
2021-12-24T02:58:03,42.805,6.029,0.01,0.002,0.009,101.0,99.0,100.0,13.4,1505.2,329.1,-0.7,1.8,2470.518,13.29,0.01,78.7
2021-12-24T03:04:03,42.805,6.029,-0.028,0.015,0.001,100.0,101.0,100.0,13.4,1505.2,325.0,-0.8,1.8,2470.538,13.28,0.031,298.2
2021-12-24T03:07:03,42.805,6.029,-0.008,0.008,-0.02,100.0,100.0,99.0,13.3,1505.2,331.7,-0.8,1.8,2470.531,13.29,0.011,315.0
2021-12-24T03:10:03,42.805,6.029,0.0,0.0,-0.007,100.0,101.0,99.0,13.4,1505.2,327.0,-0.8,1.8,2470.576,13.29,0.0,0.0
2021-12-24T03:13:03,42.805,6.029,-0.03,0.036,0.01,99.0,100.0,100.0,13.3,1505.2,329.3,-0.8,1.8,2470.538,13.29,0.046,320.2
2021-12-24T03:16:03,42.805,6.029,-0.007,0.002,-0.012,100.0,100.0,99.0,13.4,1505.2,329.0,-0.7,1.8,2470.539,13.29,0.007,285.9
2021-12-24T03:19:03,42.805,6.029,-0.021,0.006,-0.036,100.0,100.0,99.0,13.4,1505.2,326.8,-0.7,1.8,2470.53,13.29,0.021,285.9
2021-12-24T03:22:03,42.805,6.029,0.0,0.014,-0.011,102.0,101.0,100.0,13.4,1505.2,329.4,-0.7,1.8,2470.547,13.29,0.014,0.0
2021-12-24T03:25:03,42.805,6.029,0.011,0.027,0.019,100.0,100.0,100.0,13.4,1505.2,325.8,-0.8,1.8,2470.529,13.29,0.029,22.2
2021-12-24T03:28:03,42.805,6.029,-0.019,-0.009,-0.045,100.0,101.0,100.0,13.4,1505.2,324.3,-0.8,1.8,2470.563,13.29,0.021,244.7
2021-12-24T03:31:03,42.805,6.029,-0.014,-0.026,-0.026,99.0,100.0,100.0,13.3,1505.2,328.2,-0.8,1.9,2470.569,13.29,0.029,208.3
2021-12-24T03:34:03,42.805,6.029,-0.027,-0.006,-0.009,100.0,101.0,100.0,13.3,1505.2,326.1,-0.7,1.8,2470.563,13.29,0.027,257.5
2021-12-24T03:37:03,42.805,6.029,0.002,0.01,0.007,101.0,101.0,98.0,13.3,1505.2,329.0,-0.8,1.8,2470.593,13.29,0.01,11.3
2021-12-24T03:40:03,42.805,6.029,-0.035,0.02,-0.007,100.0,98.0,100.0,13.4,1505.2,328.7,-0.7,1.8,2470.558,13.29,0.04,299.7
2021-12-24T03:43:03,42.805,6.029,-0.017,0.014,0.012,102.0,98.0,100.0,13.4,1505.2,330.5,-0.7,1.8,2470.54,13.29,0.022,309.5
2021-12-24T03:46:03,42.805,6.029,-0.028,0.012,-0.002,98.0,101.0,100.0,13.3,1505.2,323.7,-0.8,1.8,2470.536,13.29,0.03,293.2
2021-12-24T03:49:03,42.805,6.029,-0.012,0.02,-0.002,100.0,100.0,99.0,13.3,1505.2,326.6,-0.8,1.8,2470.576,13.29,0.023,329.0
2021-12-24T03:52:03,42.805,6.029,-0.016,0.017,-0.019,101.0,100.0,99.0,13.4,1505.2,325.8,-0.8,1.8,2470.575,13.29,0.023,316.7
2021-12-24T03:55:03,42.805,6.029,0.0,0.0,-0.016,101.0,101.0,99.0,13.4,1505.2,328.4,-0.8,1.8,2470.553,13.29,0.0,0.0
2021-12-24T03:58:03,42.805,6.029,0.005,0.001,0.003,101.0,99.0,99.0,13.4,1505.2,330.3,-0.7,1.8,2470.533,13.29,0.005,78.7
2021-12-24T04:04:03,42.805,6.029,-0.011,0.005,0.003,103.0,101.0,99.0,13.4,1505.2,331.0,-0.7,1.8,2470.564,13.28,0.012,294.4
2021-12-24T04:07:03,42.805,6.029,0.01,0.015,0.003,100.0,100.0,100.0,13.3,1505.2,327.1,-0.8,1.8,2470.584,13.29,0.018,33.7
2021-12-24T04:10:03,42.805,6.029,-0.019,0.0,-0.019,99.0,101.0,100.0,13.4,1505.2,329.4,-0.8,1.8,2470.578,13.29,0.019,270.0
2021-12-24T04:13:03,42.805,6.029,-0.01,0.003,-0.002,100.0,102.0,99.0,13.3,1505.2,331.7,-0.8,1.8,2470.595,13.29,0.01,286.7
2021-12-24T04:16:03,42.805,6.029,-0.017,0.012,-0.021,99.0,100.0,99.0,13.3,1505.2,327.9,-0.7,1.8,2470.574,13.29,0.02,305.2
2021-12-24T04:19:03,42.805,6.029,-0.022,-0.007,-0.058,100.0,100.0,99.0,13.4,1505.2,324.0,-0.8,1.8,2470.554,13.29,0.023,252.4
2021-12-24T04:22:03,42.805,6.029,0.001,0.005,-0.011,100.0,101.0,99.0,13.3,1505.2,324.0,-0.7,1.8,2470.579,13.29,0.005,11.3
2021-12-24T04:25:03,42.805,6.029,0.0,-0.023,-0.039,101.0,100.0,99.0,13.3,1505.2,325.3,-0.7,1.8,2470.559,13.29,0.023,180.0
2021-12-24T04:28:03,42.805,6.029,-0.038,0.033,0.013,99.0,101.0,100.0,13.4,1505.2,325.3,-0.8,1.8,2470.551,13.29,0.05,311.0
2021-12-24T04:31:03,42.805,6.029,0.008,0.023,0.003,100.0,101.0,99.0,13.4,1505.2,328.9,-0.7,1.8,2470.596,13.29,0.024,19.2
2021-12-24T04:34:03,42.805,6.029,-0.025,0.01,-0.012,100.0,100.0,100.0,13.3,1505.2,328.0,-0.7,1.8,2470.572,13.29,0.026,291.8
2021-12-24T04:37:03,42.805,6.029,0.017,-0.011,0.004,100.0,100.0,99.0,13.4,1505.2,326.3,-0.8,1.8,2470.586,13.29,0.02,122.9
2021-12-24T04:40:03,42.805,6.029,-0.023,0.005,-0.013,100.0,101.0,100.0,13.3,1505.2,329.4,-0.8,1.8,2470.588,13.29,0.023,282.3
2021-12-24T04:43:03,42.805,6.029,-0.025,-0.015,-0.05,99.0,102.0,99.0,13.4,1505.2,325.0,-0.7,1.8,2470.578,13.29,0.029,239.0
2021-12-24T04:46:03,42.805,6.029,-0.012,0.005,-0.022,99.0,101.0,101.0,13.3,1505.2,324.1,-0.8,1.8,2470.604,13.29,0.013,292.6
2021-12-24T04:49:03,42.805,6.029,-0.016,0.003,-0.052,101.0,101.0,99.0,13.3,1505.2,330.8,-0.7,1.8,2470.58,13.29,0.016,280.6
2021-12-24T04:52:03,42.805,6.029,0.026,-0.011,0.009,100.0,102.0,100.0,13.4,1505.2,328.9,-0.8,1.8,2470.573,13.29,0.028,112.9
2021-12-24T04:55:03,42.805,6.029,-0.021,0.011,-0.004,101.0,101.0,100.0,13.4,1505.2,327.9,-0.7,1.8,2470.593,13.29,0.023,297.6
2021-12-24T04:58:03,42.805,6.029,0.005,-0.004,-0.013,101.0,100.0,100.0,13.4,1505.2,329.6,-0.8,1.8,2470.575,13.29,0.006,128.7
2021-12-24T05:04:03,42.805,6.029,-0.013,0.012,0.008,99.0,101.0,100.0,13.4,1505.2,330.3,-0.8,1.9,2470.615,13.29,0.017,312.7
2021-12-24T05:07:03,42.805,6.029,-0.028,0.007,-0.008,100.0,101.0,99.0,13.3,1505.2,330.0,-0.8,1.8,2470.622,13.29,0.028,284.0
2021-12-24T05:10:03,42.805,6.029,-0.018,0.005,-0.027,101.0,101.0,99.0,13.4,1505.2,330.4,-0.8,1.9,2470.641,13.29,0.018,285.5
2021-12-24T05:13:03,42.805,6.029,-0.013,0.008,-0.031,99.0,100.0,100.0,13.4,1505.2,326.5,-0.7,1.8,2470.635,13.29,0.015,301.6
2021-12-24T05:16:03,42.805,6.029,-0.013,-0.016,-0.033,101.0,101.0,99.0,13.3,1505.2,327.0,-0.8,1.8,2470.632,13.29,0.02,219.1
2021-12-24T05:19:03,42.805,6.029,-0.024,-0.004,-0.062,99.0,100.0,100.0,13.4,1505.2,328.7,-0.8,1.8,2470.632,13.29,0.024,260.5
2021-12-24T05:22:03,42.805,6.029,-0.028,0.016,0.011,101.0,99.0,100.0,13.4,1505.2,326.3,-0.8,1.8,2470.603,13.29,0.032,299.7
2021-12-24T05:25:03,42.805,6.029,-0.032,0.003,-0.03,100.0,100.0,99.0,13.3,1505.2,326.3,-0.8,1.8,2470.631,13.29,0.032,275.4
2021-12-24T05:28:03,42.805,6.029,-0.011,0.0,-0.042,99.0,100.0,99.0,13.4,1505.2,328.5,-0.8,1.8,2470.631,13.29,0.011,270.0
2021-12-24T05:31:03,42.805,6.029,-0.014,0.017,0.016,101.0,99.0,100.0,13.4,1505.2,330.9,-0.8,1.8,2470.608,13.29,0.022,320.5
2021-12-24T05:34:03,42.805,6.029,-0.017,-0.013,-0.047,102.0,100.0,99.0,13.4,1505.2,331.2,-0.7,1.8,2470.613,13.29,0.021,232.6
2021-12-24T05:37:03,42.805,6.029,-0.012,-0.002,-0.044,101.0,100.0,100.0,13.4,1505.2,326.4,-0.7,1.8,2470.654,13.29,0.012,260.5
2021-12-24T05:40:03,42.805,6.029,-0.024,0.009,-0.007,99.0,100.0,100.0,13.4,1505.2,331.1,-0.8,1.8,2470.63,13.29,0.025,290.6
2021-12-24T05:43:03,42.805,6.029,-0.005,-0.01,-0.014,102.0,101.0,99.0,13.4,1505.2,327.1,-0.7,1.8,2470.651,13.29,0.011,206.6
2021-12-24T05:46:03,42.805,6.029,-0.015,-0.002,-0.007,100.0,100.0,99.0,13.3,1505.2,326.9,-0.8,1.8,2470.669,13.29,0.015,262.4
2021-12-24T05:49:03,42.805,6.029,-0.054,0.0,-0.026,100.0,101.0,100.0,13.4,1505.2,325.6,-0.7,1.8,2470.641,13.29,0.053,270.0
2021-12-24T05:52:03,42.805,6.029,-0.033,-0.015,-0.059,100.0,100.0,101.0,13.4,1505.2,330.0,-0.8,1.8,2470.644,13.29,0.036,245.6
2021-12-24T05:55:03,42.805,6.029,-0.025,0.027,-0.013,101.0,98.0,99.0,13.4,1505.2,324.2,-0.8,1.8,2470.642,13.29,0.036,317.2
2021-12-24T05:58:03,42.805,6.029,-0.002,0.008,-0.017,99.0,100.0,100.0,13.3,1505.2,328.9,-0.8,1.8,2470.646,13.29,0.008,346.0
2021-12-24T06:04:03,42.805,6.029,-0.025,0.012,-0.02,100.0,100.0,100.0,13.3,1505.2,327.3,-0.8,1.8,2470.667,13.29,0.027,295.6
2021-12-24T06:07:03,42.805,6.029,-0.001,0.0,0.002,102.0,101.0,99.0,13.4,1505.2,331.0,-0.7,1.8,2470.667,13.29,0.001,270.0
2021-12-24T06:10:03,42.805,6.029,-0.012,0.006,0.0,100.0,102.0,99.0,13.4,1505.2,326.6,-0.8,1.9,2470.681,13.29,0.013,296.6
2021-12-24T06:13:03,42.805,6.029,-0.021,0.014,-0.012,100.0,100.0,99.0,13.3,1505.2,327.7,-0.8,1.8,2470.655,13.29,0.025,303.7
2021-12-24T06:16:03,42.805,6.029,-0.025,0.003,-0.022,101.0,100.0,100.0,13.3,1505.2,330.4,-0.8,1.8,2470.668,13.29,0.025,276.8
2021-12-24T06:19:03,42.805,6.029,-0.01,-0.027,-0.033,100.0,100.0,99.0,13.3,1505.2,327.2,-0.8,1.8,2470.657,13.29,0.028,200.3
2021-12-24T06:22:03,42.805,6.029,-0.038,0.007,-0.016,100.0,101.0,99.0,13.4,1505.2,327.3,-0.8,1.8,2470.667,13.29,0.038,280.4
2021-12-24T06:25:03,42.805,6.029,-0.014,0.001,-0.022,101.0,101.0,99.0,13.4,1505.2,325.7,-0.8,1.8,2470.666,13.29,0.014,274.1
2021-12-24T06:28:03,42.805,6.029,-0.015,0.003,-0.006,100.0,100.0,100.0,13.4,1505.2,326.0,-0.8,1.8,2470.68,13.29,0.015,281.3
2021-12-24T06:31:03,42.805,6.029,-0.037,-0.003,-0.055,100.0,100.0,100.0,13.4,1505.2,323.8,-0.8,1.8,2470.651,13.29,0.037,265.4
2021-12-24T06:34:03,42.805,6.029,-0.006,0.012,-0.011,101.0,101.0,99.0,13.3,1505.2,326.2,-0.8,1.8,2470.664,13.29,0.013,333.4
2021-12-24T06:37:03,42.805,6.029,-0.009,0.001,-0.009,102.0,101.0,100.0,13.3,1505.2,324.6,-0.8,1.8,2470.661,13.29,0.009,276.3
2021-12-24T06:40:03,42.805,6.029,-0.002,0.006,0.014,100.0,100.0,100.0,13.4,1505.2,328.3,-0.8,1.8,2470.676,13.29,0.006,341.6
2021-12-24T06:43:03,42.805,6.029,-0.029,-0.005,-0.035,100.0,101.0,100.0,13.4,1505.2,330.2,-0.8,1.8,2470.672,13.29,0.029,260.2
2021-12-24T06:46:03,42.805,6.029,-0.022,-0.002,-0.035,100.0,100.0,100.0,13.3,1505.2,324.1,-0.8,1.8,2470.656,13.29,0.022,264.8
2021-12-24T06:49:03,42.805,6.029,-0.003,-0.002,0.006,100.0,101.0,100.0,13.3,1505.2,327.2,-0.8,1.8,2470.676,13.29,0.003,236.3
2021-12-24T06:52:03,42.805,6.029,-0.009,-0.028,-0.024,99.0,102.0,99.0,13.3,1505.2,331.2,-0.7,1.8,2470.657,13.29,0.029,197.8
2021-12-24T06:55:03,42.805,6.029,-0.017,0.01,-0.009,101.0,99.0,100.0,13.4,1505.2,327.7,-0.8,1.8,2470.685,13.29,0.019,300.5
2021-12-24T06:58:03,42.805,6.029,-0.016,-0.007,-0.032,101.0,101.0,100.0,13.4,1505.2,326.0,-0.8,1.8,2470.694,13.29,0.017,246.4
2021-12-24T07:04:03,42.805,6.029,-0.002,0.006,-0.007,101.0,100.0,100.0,13.4,1505.2,324.1,-0.8,1.8,2470.704,13.29,0.006,341.6
2021-12-24T07:07:03,42.805,6.029,-0.037,-0.009,-0.056,99.0,100.0,100.0,13.4,1505.2,330.3,-0.8,1.8,2470.739,13.29,0.038,256.3
2021-12-24T07:10:03,42.805,6.029,-0.011,0.002,-0.016,99.0,100.0,101.0,13.4,1505.2,329.8,-0.8,1.8,2470.72,13.29,0.011,280.3
2021-12-24T07:13:03,42.805,6.029,-0.046,0.024,-0.014,101.0,100.0,100.0,13.4,1505.2,324.3,-0.8,1.8,2470.708,13.29,0.051,297.6
2021-12-24T07:16:03,42.805,6.029,-0.01,0.018,-0.012,100.0,102.0,100.0,13.4,1505.2,327.2,-0.7,1.8,2470.736,13.29,0.02,330.9
2021-12-24T07:19:03,42.805,6.029,-0.001,0.007,-0.019,102.0,100.0,100.0,13.4,1505.2,325.7,-0.8,1.8,2470.688,13.29,0.007,351.9
2021-12-24T07:22:03,42.805,6.029,-0.034,0.005,-0.016,101.0,101.0,100.0,13.4,1505.2,329.5,-0.8,1.8,2470.726,13.29,0.034,278.4
2021-12-24T07:25:03,42.805,6.029,-0.015,0.01,-0.006,101.0,100.0,100.0,13.4,1505.2,331.6,-0.7,1.8,2470.695,13.29,0.018,303.7
2021-12-24T07:28:03,42.805,6.029,-0.035,0.006,-0.008,103.0,102.0,99.0,13.3,1505.2,323.9,-0.7,1.8,2470.723,13.29,0.035,279.7
2021-12-24T07:31:03,42.805,6.029,-0.009,0.003,-0.016,101.0,100.0,100.0,13.4,1505.2,326.8,-0.7,1.8,2470.702,13.29,0.009,288.4
2021-12-24T07:34:03,42.805,6.029,-0.009,0.01,-0.006,100.0,100.0,99.0,13.4,1505.2,329.1,-0.7,1.8,2470.7,13.29,0.013,318.0
2021-12-24T07:37:03,42.805,6.029,-0.036,0.027,-0.019,100.0,99.0,101.0,13.4,1505.2,327.5,-0.7,1.8,2470.698,13.29,0.045,306.9
2021-12-24T07:40:03,42.805,6.029,-0.035,0.038,-0.007,100.0,101.0,99.0,13.4,1505.2,327.6,-0.8,1.8,2470.729,13.29,0.051,317.4
2021-12-24T07:43:03,42.805,6.029,-0.026,-0.001,-0.013,100.0,101.0,100.0,13.4,1505.2,331.4,-0.7,1.8,2470.752,13.29,0.026,267.8
2021-12-24T07:46:03,42.805,6.029,0.0,-0.001,0.001,101.0,100.0,100.0,13.3,1505.2,331.2,-0.7,1.8,2470.682,13.29,0.001,180.0
2021-12-24T07:49:03,42.805,6.029,-0.01,0.009,0.004,100.0,100.0,100.0,13.3,1505.2,326.8,-0.7,1.8,2470.734,13.29,0.013,312.0
2021-12-24T07:52:03,42.805,6.029,-0.044,0.006,-0.069,100.0,100.0,99.0,13.4,1505.2,328.5,-0.8,1.8,2470.733,13.29,0.044,277.8
2021-12-24T07:55:03,42.805,6.029,-0.016,0.011,-0.031,100.0,100.0,99.0,13.3,1505.2,325.8,-0.7,1.8,2470.705,13.29,0.019,304.5
2021-12-24T07:58:03,42.805,6.029,-0.003,0.013,-0.009,100.0,101.0,100.0,13.4,1505.2,328.2,-0.7,1.8,2470.735,13.29,0.013,347.0
2021-12-24T08:04:03,42.805,6.029,-0.042,0.035,0.001,100.0,101.0,99.0,13.3,1505.2,328.5,-0.8,1.8,2470.773,13.28,0.054,309.8
2021-12-24T08:07:03,42.805,6.029,-0.018,0.017,0.011,99.0,102.0,99.0,13.4,1505.2,330.8,-0.7,1.8,2470.77,13.28,0.024,313.4
2021-12-24T08:10:03,42.805,6.029,-0.029,0.015,0.002,99.0,101.0,100.0,13.4,1505.2,331.1,-0.7,1.8,2470.764,13.28,0.032,297.4
2021-12-24T08:13:03,42.805,6.029,-0.003,-0.012,-0.057,99.0,101.0,99.0,13.4,1505.2,327.2,-0.8,1.8,2470.76,13.29,0.012,194.0
2021-12-24T08:16:03,42.805,6.029,-0.032,0.011,-0.003,102.0,100.0,100.0,13.3,1505.2,326.4,-0.7,1.8,2470.788,13.29,0.033,289.0
2021-12-24T08:19:03,42.805,6.029,-0.014,0.0,-0.032,99.0,100.0,101.0,13.4,1505.2,324.8,-0.7,1.8,2470.791,13.29,0.014,270.0
2021-12-24T08:22:03,42.805,6.029,-0.019,0.01,-0.016,100.0,101.0,99.0,13.4,1505.2,329.4,-0.8,1.8,2470.812,13.29,0.021,297.8
2021-12-24T08:25:03,42.805,6.029,-0.013,0.004,-0.003,100.0,100.0,99.0,13.4,1505.2,329.1,-0.7,1.8,2470.791,13.29,0.013,287.1
2021-12-24T08:28:03,42.805,6.029,0.004,0.0,-0.005,99.0,99.0,100.0,13.4,1505.2,328.3,-0.8,1.8,2470.726,13.29,0.004,90.0
2021-12-24T08:31:03,42.805,6.029,-0.032,0.009,-0.013,98.0,100.0,101.0,13.4,1505.2,330.7,-0.8,1.8,2470.771,13.29,0.033,285.7
2021-12-24T08:34:03,42.805,6.029,-0.039,-0.007,-0.058,100.0,102.0,98.0,13.3,1505.2,331.6,-0.7,1.8,2470.778,13.29,0.039,259.8
2021-12-24T08:37:03,42.805,6.029,-0.028,0.01,0.007,102.0,100.0,100.0,13.3,1505.2,325.4,-0.8,1.8,2470.757,13.29,0.029,289.6
2021-12-24T08:40:03,42.805,6.029,-0.02,-0.004,-0.017,101.0,98.0,100.0,13.4,1505.2,326.0,-0.8,1.8,2470.757,13.29,0.02,258.7
2021-12-24T08:43:03,42.805,6.029,-0.024,0.008,0.001,100.0,101.0,100.0,13.4,1505.2,327.7,-0.8,1.8,2470.788,13.29,0.025,288.4
2021-12-24T08:46:03,42.805,6.029,-0.026,0.006,-0.026,102.0,100.0,99.0,13.4,1505.2,329.5,-0.8,1.9,2470.73,13.29,0.026,283.0
2021-12-24T08:49:03,42.805,6.029,-0.03,0.002,-0.017,101.0,100.0,99.0,13.4,1505.2,326.6,-0.7,1.8,2470.753,13.29,0.03,273.8
2021-12-24T08:52:03,42.805,6.029,-0.024,-0.013,-0.012,101.0,100.0,99.0,13.4,1505.2,331.7,-0.7,1.8,2470.765,13.29,0.027,241.6
2021-12-24T08:55:03,42.805,6.029,-0.015,0.005,-0.021,100.0,101.0,99.0,13.4,1505.2,328.6,-0.7,1.8,2470.786,13.29,0.015,288.4
2021-12-24T08:58:03,42.805,6.029,-0.013,0.008,-0.013,99.0,100.0,101.0,13.3,1505.2,324.0,-0.8,1.8,2470.735,13.29,0.015,301.6
2021-12-24T09:04:03,42.805,6.029,-0.039,0.003,-0.01,100.0,100.0,100.0,13.4,1505.2,327.4,-0.8,1.8,2470.822,13.28,0.039,274.4
2021-12-24T09:07:03,42.805,6.029,-0.032,0.005,-0.001,100.0,100.0,100.0,13.4,1505.2,330.5,-0.8,1.8,2470.77,13.28,0.032,278.9
2021-12-24T09:10:03,42.805,6.029,-0.037,-0.005,-0.027,100.0,101.0,100.0,13.4,1505.2,329.4,-0.8,1.8,2470.792,13.28,0.037,262.3
2021-12-24T09:13:03,42.805,6.029,-0.005,0.007,0.006,100.0,101.0,100.0,13.4,1505.2,324.7,-0.8,1.8,2470.809,13.29,0.008,324.5
2021-12-24T09:16:03,42.805,6.029,-0.031,-0.011,-0.045,100.0,100.0,99.0,13.4,1505.2,330.6,-0.7,1.8,2470.799,13.29,0.032,250.5
2021-12-24T09:19:03,42.805,6.029,-0.011,0.002,-0.011,100.0,100.0,99.0,13.3,1505.2,326.6,-0.8,1.8,2470.811,13.29,0.011,280.3
2021-12-24T09:22:03,42.805,6.029,-0.035,-0.006,-0.052,100.0,101.0,99.0,13.4,1505.2,326.4,-0.7,1.8,2470.799,13.29,0.035,260.3
2021-12-24T09:25:03,42.805,6.029,-0.029,-0.002,-0.03,99.0,100.0,100.0,13.3,1505.2,325.7,-0.8,1.8,2470.802,13.29,0.029,266.1
2021-12-24T09:28:03,42.805,6.029,-0.023,0.015,0.004,100.0,100.0,99.0,13.4,1505.2,325.8,-0.8,1.8,2470.805,13.29,0.027,303.1
2021-12-24T09:31:03,42.805,6.029,-0.016,0.008,-0.027,101.0,100.0,99.0,13.4,1505.2,329.0,-0.7,1.8,2470.799,13.29,0.017,296.6
2021-12-24T09:34:03,42.805,6.029,-0.013,0.007,0.0,100.0,101.0,100.0,13.3,1505.2,330.9,-0.8,1.8,2470.786,13.29,0.014,298.3
2021-12-24T09:37:03,42.805,6.029,0.0,-0.014,-0.017,101.0,100.0,99.0,13.3,1505.2,326.3,-0.8,1.8,2470.787,13.29,0.014,180.0
2021-12-24T09:40:03,42.805,6.029,0.002,-0.015,-0.031,101.0,100.0,99.0,13.3,1505.2,327.1,-0.8,1.8,2470.789,13.28,0.015,172.4
2021-12-24T09:43:03,42.805,6.029,-0.039,0.02,0.002,102.0,101.0,100.0,13.4,1505.2,330.1,-0.8,1.8,2470.801,13.29,0.043,297.1
2021-12-24T09:46:03,42.805,6.029,-0.023,0.009,-0.009,101.0,100.0,99.0,13.3,1505.2,326.9,-0.8,1.8,2470.799,13.29,0.024,291.4
2021-12-24T09:49:03,42.805,6.029,-0.022,-0.009,-0.044,102.0,101.0,98.0,13.3,1505.2,327.0,-0.8,1.8,2470.822,13.29,0.023,247.8
2021-12-24T09:52:03,42.805,6.029,-0.024,0.008,-0.003,100.0,102.0,99.0,13.4,1505.2,328.6,-0.8,1.8,2470.814,13.29,0.025,288.4
2021-12-24T09:55:03,42.805,6.029,-0.045,0.015,-0.013,101.0,100.0,100.0,13.3,1505.2,328.5,-0.7,1.8,2470.79,13.29,0.047,288.4
2021-12-24T09:58:03,42.805,6.029,-0.026,-0.001,-0.036,101.0,100.0,100.0,13.4,1505.2,329.1,-0.8,1.8,2470.829,13.29,0.026,267.8